This is the latest recevied weather packets stored in our database for station/object IU5GBO-13. If no packets are shown the sender has not sent any weather packets the latest 10 day(s).
| Time | Temp. | Humidity | Pressure | Rain* | Wind** | Luminosity | Snow |
|---|---|---|---|---|---|---|---|
| 1777906577 | 19.44° C | 57% | 1019 hPa | - | - | - | - |
| 1777905977 | 19.44° C | 57% | 1019.1 hPa | - | - | - | - |
| 1777905378 | 19.44° C | 59% | 1019.2 hPa | - | - | - | - |
| 1777904777 | 20° C | 57% | 1019.3 hPa | - | - | - | - |
| 1777904177 | 20° C | 56% | 1019.2 hPa | - | - | - | - |
| 1777903578 | 20° C | 55% | 1019.2 hPa | - | - | - | - |
| 1777902978 | 20.56° C | 55% | 1019.3 hPa | - | - | - | - |
| 1777902378 | 20.56° C | 53% | 1019.3 hPa | - | - | - | - |
| 1777901780 | 20.56° C | 53% | 1019.4 hPa | - | - | - | - |
| 1777901178 | 21.11° C | 52% | 1019.4 hPa | - | - | - | - |
| 1777900577 | 21.11° C | 52% | 1019.4 hPa | - | - | - | - |
| 1777899978 | 21.11° C | 52% | 1019.5 hPa | - | - | - | - |
| 1777899377 | 21.11° C | 52% | 1019.6 hPa | - | - | - | - |
| 1777898778 | 21.11° C | 52% | 1019.7 hPa | - | - | - | - |
| 1777898178 | 21.11° C | 51% | 1019.8 hPa | - | - | - | - |
| 1777897577 | 21.67° C | 50% | 1019.8 hPa | - | - | - | - |
| 1777896978 | 21.67° C | 51% | 1019.9 hPa | - | - | - | - |
| 1777896378 | 21.67° C | 51% | 1020 hPa | - | - | - | - |
| 1777895777 | 21.11° C | 51% | 1019.9 hPa | - | - | - | - |
| 1777895178 | 22.22° C | 49% | 1020 hPa | - | - | - | - |
| 1777894577 | 22.22° C | 50% | 1020 hPa | - | - | - | - |
| 1777893977 | 21.67° C | 51% | 1020.1 hPa | - | - | - | - |
| 1777893377 | 21.67° C | 52% | 1020.1 hPa | - | - | - | - |
| 1777892777 | 21.11° C | 52% | 1020.3 hPa | - | - | - | - |
| 1777892177 | 21.67° C | 51% | 1020.3 hPa | - | - | - | - |
* Rain since midnight (hover to see other rain measurements)
** Current wind speed in m/s (hover to see current wind gust speed)